Regional Weather Roundup
Issued by NWS

Home | Current Version | Previous Version | Text Only | Print | Product List | Glossary Off
Versions: 1 2 3 4 5 6 7 8 9 10 11 12 13 14 15 16 17 18 19 20 21 22 23 24 25 26 27 28 29 30 31 32 33 34 35 36 37 38 39 40 41 42 43 44 45 46 47 48 49 50

000
ASUS43 KIND 260859
RWRIN

WEATHER ROUNDUP FOR INDIANA
NATIONAL WEATHER SERVICE INDIANAPOLIS IN
500 AM EDT THU APR 26 2018

NOTE: "FAIR" INDICATES FEW OR NO CLOUDS BELOW 12,000 FEET WITH NO
SIGNIFICANT WEATHER AND/OR OBSTRUCTIONS TO VISIBILITY.

* - STATION DOES NOT REPORT WEATHER SUCH AS PRECIPITATION OR FOG.

+ - STATION NOT QUALITY CONTROLLED BY THE NATIONAL WEATHER SERVICE.
    USE DATA WITH CAUTION...ESPECIALLY DEWPOINT AND RELATIVE
    HUMIDITY OBSERVATIONS.

INZ001>003-010>013-019-020-261000-
NORTHWEST INDIANA

CITY           SKY/WX    TMP DP  RH WIND       PRES   REMARKS
KNOX *+        FAIR      28  28 100 CALM      29.95S
MONTICELLO +   FAIR      29  26  91 N7        29.93F WCI  22
RENSSELAER +   FAIR      32  28  86 W3        29.95F

$$

LMZ046-743>745-261000-
SOUTHERN LAKE MICHIGAN

STATION/POSITION TIME  TEMP    WIND        PRES    WAVE
                       AIR SEA DIR/SP/G            HT
                 (UTC) (F)     (DEG/KT/KT) (MB)    (FT)
BURNS HARBOR     0840   40     330/  3/  7 1015.2R
MICHIGAN CITY    0830   38     330/  8/  9   N/A

$$

INZ004-005-014>016-021>024-261000-
NORTH CENTRAL INDIANA

CITY           SKY/WX    TMP DP  RH WIND       PRES   REMARKS
GOSHEN         FAIR      34  30  85 NE3       29.93S
PERU/GRISSOM   FAIR      34  34  99 N6        29.91F WCI  29
ROCHESTER +    FAIR      36  32  87 CALM      29.94S
SOUTH BEND     FAIR      32  28  85 N3        29.94F
WARSAW +       FAIR      32  32 100 CALM      29.93S

$$

INZ006>009-017-018-025>027-261000-
NORTHEAST INDIANA

CITY           SKY/WX    TMP DP  RH WIND       PRES   REMARKS
ANGOLA *+      MOCLDY    43  41  93 SE6       29.92S
FORT WAYNE     FAIR      36  31  82 NW3       29.93S
KENDALLVILLE + FAIR      32  28  85 NE3       29.93S

$$

INZ028-029-035-036-043>045-051>053-261000-
WEST CENTRAL INDIANA

CITY           SKY/WX    TMP DP  RH WIND       PRES   REMARKS
CRAWFORDSVL +  FAIR      34  29  82 CALM      29.92F
GREENCASTLE +  FAIR      41  30  65 CALM      29.93S
LAFAYETTE      FAIR      35  29  78 CALM      29.93F
TERRE HAUTE    FAIR      42  37  82 CALM      29.94F

$$

INZ030>032-037>040-046>048-054>057-064-065-261000-
CENTRAL INDIANA

CITY           SKY/WX    TMP DP  RH WIND       PRES   REMARKS
GREENWOOD *+   FAIR      39  31  70 CALM      29.92S
INDIANAPOLIS   MOCLDY    40  30  67 NW5       29.91F WCI  37
-EAGLE CREEK   FAIR      41  30  65 N6        29.90F
KOKOMO +       FAIR      34  29  82 NW5       29.93S WCI  30
MT COMFORT *+  FAIR      36  34  93 CALM      29.92R
SHELBYVILLE    FAIR      41  32  70 CALM      29.91F
ZIONSVILLE +   FAIR      34  30  86 NW5       29.92S WCI  30

$$

INZ033-034-041-042-049-050-058-059-261000-
EAST CENTRAL INDIANA

CITY           SKY/WX    TMP DP  RH WIND       PRES   REMARKS
MUNCIE         FAIR      36  29  75 NW3       29.91F
RICHMOND +     FAIR      36  32  87 NW3       29.91S

$$

INZ060-061-067>069-081>083-085>088-261000-
SOUTHWEST INDIANA

CITY           SKY/WX    TMP DP  RH WIND       PRES   REMARKS
EVANSVILLE     CLOUDY    53  40  61 NE6       29.91S
HUNTINGBURG +  FAIR      51  37  58 NE7       29.91S

$$

INZ062-063-066-070>080-084-089>092-261000-
SOUTH CENTRAL AND SOUTHEAST INDIANA

CITY           SKY/WX    TMP DP  RH WIND       PRES   REMARKS
BLOOMINGTON    FAIR      44  32  62 N3        29.92S
FRENCH LICK *+ FAIR      48  28  46 CALM      29.92S
SEYMOUR +      FAIR      46  32  57 N5        29.92S

$$





USA.gov is the U.S. government's official web portal to all federal, state and local government web resources and services.